| time (UTC) | temp C | wind direction | speed KPH | gust KPH | rain 1hr cm | rain 24hr cm | rain mn cm | humidity % | barometer mb |
| 20260504050749 | 6 | 89 | 0.0 | 0.0 | 0.00 | 0.00 | 0.00 | 69 | 956.8 |
| 20260504050247 | 6 | 89 | 0.0 | 0.0 | 0.00 | 0.00 | 0.00 | 69 | 956.8 |
| 20260504045744 | 6 | 89 | 0.0 | 0.0 | 0.00 | 0.00 | 0.00 | 69 | 956.7 |
| 20260504045238 | 6 | 93 | 0.0 | 0.0 | 0.00 | 0.00 | 0.00 | 71 | 956.9 |
| 20260504044736 | 6 | 94 | 0.0 | 0.0 | 0.00 | 0.00 | 0.00 | 71 | 956.9 |
| 20260504044234 | 6 | 95 | 0.0 | 0.0 | 0.00 | 0.00 | 0.00 | 70 | 956.7 |
| 20260504043730 | 6 | 95 | 0.0 | 0.0 | 0.00 | 0.00 | 0.00 | 68 | 956.6 |
| 20260504043227 | 6 | 95 | 0.0 | 0.0 | 0.00 | 0.00 | 0.00 | 66 | 956.6 |
| 20260504042725 | 6 | 95 | 0.0 | 0.0 | 0.00 | 0.00 | 0.00 | 68 | 956.4 |
| 20260504042221 | 6 | 95 | 0.0 | 0.0 | 0.00 | 0.00 | 0.00 | 68 | 956.6 |
| 20260504041718 | 6 | 96 | 0.0 | 0.0 | 0.00 | 0.00 | 0.00 | 71 | 956.4 |
| 20260504041214 | 6 | 95 | 0.0 | 0.0 | 0.00 | 0.00 | 0.00 | 67 | 956.6 |
| 20260504040710 | 6 | 95 | 0.0 | 0.0 | 0.00 | 0.00 | 0.00 | 69 | 956.5 |
| 20260504040208 | 6 | 110 | 0.0 | 0.0 | 0.00 | 0.00 | 0.00 | 71 | 956.7 |
| 20260504035703 | 6 | 110 | 0.0 | 0.0 | 0.00 | 0.00 | 0.00 | 72 | 956.4 |
| 20260504035201 | 6 | 110 | 0.0 | 0.0 | 0.00 | 0.00 | 0.00 | 74 | 956.4 |
| 20260504034658 | 6 | 110 | 0.0 | 0.0 | 0.00 | 0.00 | 0.00 | 75 | 956.7 |
| 20260504034155 | 6 | 3 | 0.0 | 0.0 | 0.00 | 0.00 | 0.00 | 68 | 956.6 |
| 20260504033653 | 6 | 4 | 0.0 | 0.0 | 0.00 | 0.00 | 0.00 | 70 | 956.4 |
| 20260504033150 | 6 | 17 | 0.0 | 0.0 | 0.00 | 0.00 | 0.00 | 70 | 956.2 |
| 20260504032647 | 6 | 38 | 0.0 | 0.0 | 0.00 | 0.00 | 0.00 | 69 | 956.0 |
| 20260504032144 | 6 | 38 | 0.0 | 0.0 | 0.00 | 0.00 | 0.00 | 70 | 956.0 |
| 20260504031641 | 6 | 38 | 0.0 | 0.0 | 0.00 | 0.00 | 0.00 | 73 | 956.1 |
| 20260504031137 | 6 | 39 | 0.0 | 0.0 | 0.00 | 0.00 | 0.00 | 72 | 956.0 |
| 20260504030634 | 5 | 39 | 0.0 | 0.0 | 0.00 | 0.00 | 0.00 | 69 | 956.0 |
| 20260504030131 | 5 | 347 | 0.0 | 0.0 | 0.00 | 0.00 | 0.00 | 69 | 956.2 |
| 20260504025628 | 5 | 348 | 0.0 | 0.0 | 0.00 | 0.00 | 0.00 | 68 | 956.5 |
| 20260504025124 | 5 | 349 | 0.0 | 0.0 | 0.00 | 0.00 | 0.00 | 69 | 956.4 |
| 20260504024622 | 5 | 76 | 0.0 | 0.0 | 0.00 | 0.00 | 0.00 | 66 | 956.2 |
| 20260504024118 | 5 | 88 | 0.0 | 0.0 | 0.00 | 0.00 | 0.00 | 66 | 956.2 |
| 20260504023615 | 5 | 89 | 0.0 | 0.0 | 0.00 | 0.00 | 0.00 | 67 | 956.4 |
| 20260504023111 | 5 | 89 | 0.0 | 0.0 | 0.00 | 0.00 | 0.00 | 69 | 956.2 |
| 20260504022607 | 5 | 90 | 0.0 | 0.0 | 0.00 | 0.00 | 0.00 | 67 | 956.2 |
| 20260504022103 | 5 | 89 | 0.0 | 0.0 | 0.00 | 0.00 | 0.00 | 69 | 956.4 |
| 20260504021601 | 5 | 89 | 0.0 | 0.0 | 0.00 | 0.00 | 0.00 | 66 | 956.2 |
| 20260504021058 | 5 | 89 | 0.0 | 0.0 | 0.00 | 0.00 | 0.00 | 67 | 956.5 |
| 20260504020555 | 5 | 48 | 0.0 | 0.0 | 0.00 | 0.00 | 0.00 | 64 | 956.1 |
| 20260504020051 | 6 | 46 | 0.0 | 0.0 | 0.00 | 0.00 | 0.00 | 61 | 956.4 |
| 20260504015548 | 6 | 48 | 0.0 | 0.0 | 0.00 | 0.00 | 0.00 | 60 | 956.4 |
| 20260504015043 | 6 | 100 | 0.0 | 0.0 | 0.00 | 0.00 | 0.00 | 60 | 956.1 |
| 20260504014540 | 6 | 100 | 0.0 | 0.0 | 0.00 | 0.00 | 0.00 | 61 | 956.1 |
| 20260504014037 | 6 | 112 | 0.0 | 0.0 | 0.00 | 0.00 | 0.00 | 61 | 956.0 |
| 20260504013535 | 6 | 112 | 0.0 | 0.0 | 0.00 | 0.00 | 0.00 | 61 | 956.0 |
| 20260504013032 | 6 | 123 | 3.2 | 3.2 | 0.00 | 0.00 | 0.00 | 60 | 955.8 |
| 20260504012529 | 7 | 132 | 0.0 | 0.0 | 0.00 | 0.00 | 0.00 | 57 | 955.8 |
| 20260504012027 | 7 | 111 | 0.0 | 0.0 | 0.00 | 0.00 | 0.00 | 54 | 955.9 |
| 20260504011523 | 7 | 111 | 0.0 | 0.0 | 0.00 | 0.00 | 0.00 | 57 | 955.9 |
| 20260504011019 | 7 | 111 | 0.0 | 0.0 | 0.00 | 0.00 | 0.00 | 54 | 956.0 |
| 20260504010515 | 7 | 113 | 0.0 | 0.0 | 0.00 | 0.00 | 0.00 | 54 | 955.7 |
| 20260504010011 | 8 | 6 | 0.0 | 0.0 | 0.00 | 0.00 | 0.00 | 54 | 955.7 |
| 20260504005508 | 8 | 348 | 0.0 | 0.0 | 0.00 | 0.00 | 0.00 | 53 | 955.8 |
| 20260504005006 | 8 | 349 | 0.0 | 0.0 | 0.00 | 0.00 | 0.00 | 49 | 955.6 |
| 20260504004503 | 8 | 349 | 0.0 | 0.0 | 0.00 | 0.00 | 0.00 | 46 | 955.6 |
| 20260504004000 | 9 | 349 | 0.0 | 0.0 | 0.00 | 0.00 | 0.00 | 45 | 955.6 |
| 20260504003456 | 9 | 348 | 0.0 | 4.8 | 0.00 | 0.00 | 0.00 | 45 | 955.5 |
| 20260504002953 | 9 | 300 | 0.0 | 0.0 | 0.00 | 0.00 | 0.00 | 45 | 955.6 |
| 20260504002450 | 10 | 300 | 0.0 | 0.0 | 0.00 | 0.00 | 0.00 | 41 | 955.4 |
| 20260504001948 | 10 | 322 | 0.0 | 0.0 | 0.00 | 0.00 | 0.00 | 40 | 955.4 |
| 20260504001445 | 10 | 319 | 0.0 | 0.0 | 0.00 | 0.00 | 0.00 | 41 | 955.3 |
| 20260504000942 | 10 | 261 | 1.6 | 1.6 | 0.00 | 0.00 | 0.00 | 39 | 955.6 |
| 20260504000439 | 10 | 348 | 1.6 | 1.6 | 0.00 | 0.00 | 0.00 | 40 | 955.5 |
| 20260503235936 | 11 | 261 | 0.0 | 3.2 | 0.00 | 0.00 | 0.00 | 37 | 955.5 |
| 20260503235433 | 11 | 314 | 1.6 | 4.8 | 0.00 | 0.00 | 0.00 | 37 | 955.5 |
| 20260503234931 | 11 | 284 | 0.0 | 1.6 | 0.00 | 0.00 | 0.00 | 37 | 955.3 |
| 20260503234428 | 11 | 289 | 0.0 | 0.0 | 0.00 | 0.00 | 0.00 | 38 | 955.4 |
| 20260503233926 | 11 | 285 | 0.0 | 0.0 | 0.00 | 0.00 | 0.00 | 38 | 955.6 |
| 20260503233422 | 11 | 328 | 3.2 | 4.8 | 0.00 | 0.00 | 0.00 | 38 | 955.7 |
| 20260503232919 | 12 | 292 | 1.6 | 4.8 | 0.00 | 0.00 | 0.00 | 35 | 955.6 |
| 20260503232416 | 12 | 295 | 1.6 | 3.2 | 0.00 | 0.00 | 0.00 | 35 | 955.5 |
| 20260503231914 | 12 | 253 | 3.2 | 6.4 | 0.00 | 0.00 | 0.00 | 33 | 955.5 |
| 20260503231411 | 12 | 249 | 6.4 | 6.4 | 0.00 | 0.00 | 0.00 | 33 | 955.7 |
| 20260503230907 | 12 | 221 | 0.0 | 0.0 | 0.00 | 0.00 | 0.00 | 35 | 955.7 |
| 20260503230403 | 12 | 311 | 3.2 | 6.4 | 0.00 | 0.00 | 0.00 | 33 | 955.4 |
| 20260503225901 | 13 | 238 | 0.0 | 4.8 | 0.00 | 0.00 | 0.00 | 34 | 955.6 |
| 20260503225357 | 14 | 334 | 0.0 | 0.0 | 0.00 | 0.00 | 0.00 | 34 | 955.7 |
| 20260503224854 | 14 | 272 | 1.6 | 1.6 | 0.00 | 0.00 | 0.00 | 32 | 955.7 |
| 20260503224351 | 13 | 239 | 0.0 | 4.8 | 0.00 | 0.00 | 0.00 | 34 | 955.7 |
| 20260503223848 | 13 | 289 | 1.6 | 6.4 | 0.00 | 0.00 | 0.00 | 32 | 955.8 |
| 20260503223346 | 13 | 267 | 3.2 | 4.8 | 0.00 | 0.00 | 0.00 | 32 | 955.8 |
| 20260503222841 | 13 | 259 | 1.6 | 3.2 | 0.00 | 0.00 | 0.00 | 33 | 955.7 |
| 20260503222340 | 13 | 263 | 4.8 | 6.4 | 0.00 | 0.00 | 0.00 | 30 | 955.8 |
| 20260503221838 | 14 | 24 | 3.2 | 4.8 | 0.00 | 0.00 | 0.00 | 30 | 955.5 |
| 20260503221337 | 14 | 216 | 1.6 | 3.2 | 0.00 | 0.00 | 0.00 | 30 | 955.7 |
| 20260503220832 | 14 | 330 | 3.2 | 4.8 | 0.00 | 0.00 | 0.00 | 30 | 955.8 |
| 20260503220329 | 14 | 245 | 3.2 | 4.8 | 0.00 | 0.00 | 0.00 | 30 | 955.8 |
| 20260503215826 | 14 | 332 | 3.2 | 4.8 | 0.00 | 0.00 | 0.00 | 29 | 955.9 |
| 20260503215323 | 15 | 292 | 1.6 | 4.8 | 0.00 | 0.00 | 0.00 | 28 | 955.6 |
| 20260503214821 | 15 | 232 | 0.0 | 4.8 | 0.00 | 0.00 | 0.00 | 28 | 955.7 |
| 20260503214318 | 14 | 212 | 0.0 | 3.2 | 0.00 | 0.00 | 0.00 | 32 | 955.9 |
| 20260503213815 | 13 | 209 | 3.2 | 4.8 | 0.00 | 0.00 | 0.00 | 37 | 956.0 |
| 20260503213313 | 15 | 275 | 3.2 | 4.8 | 0.00 | 0.00 | 0.00 | 33 | 956.0 |
| 20260503212810 | 14 | 258 | 0.0 | 0.0 | 0.00 | 0.00 | 0.00 | 35 | 956.1 |
| 20260503212308 | 13 | 17 | 1.6 | 4.8 | 0.00 | 0.00 | 0.00 | 33 | 956.0 |
| 20260503211805 | 13 | 183 | 4.8 | 6.4 | 0.00 | 0.00 | 0.00 | 33 | 955.9 |
| 20260503211302 | 13 | 232 | 8.0 | 9.7 | 0.00 | 0.00 | 0.00 | 39 | 955.9 |
| 20260503210801 | 13 | 259 | 3.2 | 4.8 | 0.00 | 0.00 | 0.00 | 30 | 955.9 |
| 20260503210259 | 14 | 226 | 3.2 | 6.4 | 0.00 | 0.00 | 0.00 | 34 | 956.1 |
| 20260503205753 | 13 | 223 | 3.2 | 3.2 | 0.00 | 0.00 | 0.00 | 34 | 956.1 |
| 20260503205250 | 13 | 174 | 3.2 | 4.8 | 0.00 | 0.00 | 0.00 | 31 | 956.2 |
| 20260503204747 | 13 | 188 | 6.4 | 6.4 | 0.00 | 0.00 | 0.00 | 34 | 956.4 |
| 20260503204245 | 13 | 72 | 0.0 | 3.2 | 0.00 | 0.00 | 0.00 | 35 | 956.5 |
| 20260503203742 | 14 | 272 | 3.2 | 9.7 | 0.00 | 0.00 | 0.00 | 30 | 956.4 |
| 20260503203239 | 14 | 265 | 6.4 | 12.9 | 0.00 | 0.00 | 0.00 | 36 | 956.4 |
| 20260503202736 | 14 | 119 | 1.6 | 4.8 | 0.00 | 0.00 | 0.00 | 28 | 956.6 |
| 20260503202234 | 13 | 213 | 0.0 | 3.2 | 0.00 | 0.00 | 0.00 | 29 | 956.8 |
| 20260503201732 | 14 | 263 | 3.2 | 6.4 | 0.00 | 0.00 | 0.00 | 29 | 956.8 |
| 20260503201229 | 13 | 236 | 0.0 | 6.4 | 0.00 | 0.00 | 0.00 | 35 | 956.7 |
| 20260503200725 | 15 | 273 | 9.7 | 12.9 | 0.00 | 0.00 | 0.00 | 33 | 956.6 |
| 20260503200222 | 14 | 191 | 0.0 | 4.8 | 0.00 | 0.00 | 0.00 | 29 | 956.9 |
| 20260503195718 | 15 | 62 | 0.0 | 3.2 | 0.00 | 0.00 | 0.00 | 30 | 957.1 |
| 20260503195215 | 14 | 228 | 1.6 | 3.2 | 0.00 | 0.00 | 0.00 | 32 | 957.1 |
| 20260503194713 | 13 | 221 | 8.0 | 9.7 | 0.00 | 0.00 | 0.00 | 36 | 957.2 |
| 20260503194209 | 13 | 145 | 4.8 | 9.7 | 0.00 | 0.00 | 0.00 | 34 | 957.2 |
| 20260503193705 | 14 | 335 | 0.0 | 3.2 | 0.00 | 0.00 | 0.00 | 29 | 957.4 |
| 20260503193201 | 13 | 274 | 1.6 | 4.8 | 0.00 | 0.00 | 0.00 | 32 | 957.4 |
| 20260503192656 | 13 | 349 | 4.8 | 9.7 | 0.00 | 0.00 | 0.00 | 37 | 957.5 |
| 20260503192152 | 13 | 5 | 3.2 | 4.8 | 0.00 | 0.00 | 0.00 | 32 | 957.5 |
| 20260503191649 | 13 | 185 | 4.8 | 9.7 | 0.00 | 0.00 | 0.00 | 32 | 957.8 |
| 20260503191146 | 13 | 224 | 6.4 | 9.7 | 0.00 | 0.00 | 0.00 | 32 | 957.7 |
| 20260503190643 | 12 | 114 | 3.2 | 6.4 | 0.00 | 0.00 | 0.00 | 31 | 957.9 |
| 20260503190140 | 13 | 214 | 1.6 | 4.8 | 0.00 | 0.00 | 0.00 | 37 | 958.0 |
| 20260503185637 | 13 | 12 | 4.8 | 6.4 | 0.00 | 0.00 | 0.00 | 32 | 957.8 |
| 20260503185132 | 12 | 169 | 1.6 | 4.8 | 0.00 | 0.00 | 0.00 | 36 | 957.9 |
| 20260503184627 | 13 | 35 | 3.2 | 4.8 | 0.00 | 0.00 | 0.00 | 34 | 957.9 |
| 20260503184124 | 12 | 263 | 3.2 | 9.7 | 0.00 | 0.00 | 0.00 | 36 | 958.0 |
| 20260503183620 | 12 | 228 | 6.4 | 9.7 | 0.00 | 0.00 | 0.00 | 31 | 958.0 |
| 20260503183118 | 12 | 346 | 3.2 | 4.8 | 0.00 | 0.00 | 0.00 | 36 | 958.2 |
| 20260503182616 | 12 | 346 | 3.2 | 4.8 | 0.00 | 0.00 | 0.00 | 35 | 958.2 |
| 20260503182114 | 11 | 136 | 3.2 | 11.3 | 0.00 | 0.00 | 0.00 | 31 | 958.0 |
| 20260503181610 | 12 | 9 | 6.4 | 6.4 | 0.00 | 0.00 | 0.00 | 31 | 958.0 |
| 20260503181107 | 12 | 237 | 3.2 | 6.4 | 0.00 | 0.00 | 0.00 | 35 | 958.2 |
| 20260503180604 | 11 | 150 | 1.6 | 3.2 | 0.00 | 0.00 | 0.00 | 32 | 957.9 |
| 20260503175559 | 12 | 350 | 0.0 | 4.8 | 0.00 | 0.00 | 0.00 | 38 | 958.4 |
| 20260503175056 | 12 | 249 | 1.6 | 9.7 | 0.00 | 0.00 | 0.00 | 31 | 958.6 |
| 20260503174553 | 11 | 346 | 8.0 | 9.7 | 0.00 | 0.00 | 0.00 | 32 | 958.8 |
| 20260503174049 | 11 | 236 | 3.2 | 4.8 | 0.00 | 0.00 | 0.00 | 36 | 958.4 |
| 20260503173544 | 11 | 209 | 3.2 | 9.7 | 0.00 | 0.00 | 0.00 | 33 | 958.5 |
| 20260503173041 | 11 | 252 | 3.2 | 12.9 | 0.00 | 0.00 | 0.00 | 39 | 958.8 |
| 20260503172539 | 11 | 254 | 4.8 | 4.8 | 0.00 | 0.00 | 0.00 | 39 | 958.9 |
| 20260503172035 | 11 | 235 | 1.6 | 4.8 | 0.00 | 0.00 | 0.00 | 40 | 958.6 |
| 20260503171532 | 11 | 283 | 1.6 | 4.8 | 0.00 | 0.00 | 0.00 | 41 | 958.8 |
| 20260503171029 | 11 | 288 | 1.6 | 3.2 | 0.00 | 0.00 | 0.00 | 36 | 958.7 |
| 20260503170525 | 10 | 281 | 0.0 | 6.4 | 0.00 | 0.00 | 0.00 | 42 | 958.8 |
| 20260503150913 | 7 | 240 | 8.0 | 11.3 | 0.00 | 0.00 | 0.00 | 41 | 959.7 |
| 20260503150409 | 7 | 219 | 3.2 | 6.4 | 0.00 | 0.00 | 0.00 | 45 | 959.8 |
| 20260503131302 | 5 | 345 | 3.2 | 4.8 | 0.00 | 0.00 | 0.00 | 63 | 959.6 |
| 20260503130759 | 4 | 271 | 3.2 | 4.8 | 0.00 | 0.00 | 0.00 | 65 | 959.4 |
| 20260503130256 | 4 | 280 | 1.6 | 9.7 | 0.00 | 0.00 | 0.00 | 63 | 959.4 |
| 20260503110650 | -2 | 250 | 0.0 | 0.0 | 0.00 | 0.00 | 0.00 | 96 | 958.2 |
| 20260503110147 | -2 | 250 | 0.0 | 0.0 | 0.00 | 0.00 | 0.00 | 96 | 958.4 |
| 20260503100114 | -2 | 250 | 0.0 | 0.0 | 0.00 | 0.00 | 0.00 | 95 | 957.6 |
| 20260503081503 | 0 | 231 | 0.0 | 0.0 | 0.00 | 0.00 | 0.00 | 87 | 956.8 |
| 20260503081000 | 0 | 231 | 0.0 | 0.0 | 0.00 | 0.00 | 0.00 | 87 | 956.7 |
| 20260503080457 | 0 | 263 | 0.0 | 0.0 | 0.00 | 0.00 | 0.00 | 86 | 956.6 |
| 20260503072933 | 1 | 233 | 0.0 | 3.2 | 0.00 | 0.00 | 0.00 | 82 | 956.5 |
| 20260503072430 | 1 | 261 | 0.0 | 0.0 | 0.00 | 0.00 | 0.00 | 81 | 956.4 |
| 20260503071927 | 1 | 288 | 0.0 | 0.0 | 0.00 | 0.00 | 0.00 | 81 | 956.4 |
| 20260503071424 | 1 | 224 | 0.0 | 0.0 | 0.00 | 0.00 | 0.00 | 80 | 956.2 |
| 20260503070920 | 1 | 219 | 0.0 | 0.0 | 0.00 | 0.00 | 0.00 | 79 | 956.4 |
| 20260503070418 | 1 | 260 | 0.0 | 1.6 | 0.00 | 0.00 | 0.00 | 79 | 956.4 |